Regional Weather Roundup
Issued by NWS

Home | Current Version | Previous Version | Text Only | Print | Product List | Glossary On
Versions: 1 2 3 4 5 6 7 8 9 10 11 12 13 14 15 16 17 18 19 20 21 22 23 24 25 26 27 28 29 30 31 32 33 34 35 36 37 38 39 40 41 42 43 44 45 46 47 48 49 50
000
ASUS42 KTBW 240817
RWRFL
FLORIDA REGIONAL WEATHER ROUNDUP
NATIONAL WEATHER SERVICE TAMPA BAY RUSKIN FL
400 AM EDT TUE MAY 24 2016

NOTE: "FAIR" INDICATES FEW OR NO CLOUDS BELOW 12,000 FEET WITH NO
SIGNIFICANT WEATHER AND/OR OBSTRUCTIONS TO VISIBILITY.

FLZ001>010-012>015-112-114-115-240900-
PANHANDLE FLORIDA

CITY           SKY/WX    TMP DP  RH WIND       PRES   REMARKS
PENSACOLA      CLEAR     65  59  81 CALM      30.01S
CRESTVIEW      PTCLDY    56  54  93 CALM      30.03S
DUKE FIELD     FAIR      58  55  89 S5        30.01S
VALPARAISO     PTCLDY    63  57  81 CALM      30.01S
MARY ESTHER    CLEAR     62  58  87 N3        30.00S
TRI COUNTY     FAIR      59  58  96 CALM      30.03R
PANAMA CITY    FAIR      60  56  86 CALM      30.01S
TYNDALL AFB    PTCLDY    63  61  92 CALM      30.02R
APALACHICOLA   CLOUDY    61  59  93 CALM      30.01F

STATION/POSITION SKY/WX   TEMP    WIND        PRES    WAVE   SWELL
                          AIR SEA DIR/SP/G            HT/PER HT/PER
                          (F)     (DEG/KT/KT) (MB)    (FT/S) (FT/S)
30.1N   87.6W              76 79  170/  6/  8 1015.8F   1
29.2N   88.2W              77 77  130/  8/ 12 1015.8F
28.8N   86.0W              77 80  140/  6/  8 1016.5F   1
PANAMA CITY BEAC           72 75   70/  1/  1 1016.6F
TOWER C                    74     320/  5/  6 1016.6F
28.5N   84.5W              76 77  360/  2/  4 1016.2F   1

$$
FLZ011-016>038-118-127-128-134-139-239-240900-
NORTH FLORIDA

CITY           SKY/WX    TMP DP  RH WIND       PRES   REMARKS
MARIANNA       CLEAR     63  60  90 CALM      30.01S
TALLAHASSEE    CLEAR     62  57  83 CALM      30.01S
PERRY          CLEAR     62  60  94 CALM      30.02S
LIVE OAK         N/A     63  63 100 CALM      30.04S
CROSS CITY       N/A     62  57  83 CALM      30.02R
LAKE CITY      FAIR      61  57  88 CALM      30.03R
GAINESVILLE    PTCLDY    61  57  87 CALM      30.02S
WILLISTON      FAIR      63  61  94 CALM      30.02S
PALATKA        FAIR      57  57 100 CALM      30.03S
MAYPORT NAS    PTCLDY    68  61  78 CALM      30.03S
JACKSONVILLE   CLEAR     61  59  93 CALM      30.03R
JAX NAS        PTCLDY    74  60  61 NE3       30.03S
JAX CECIL      MOCLDY    70  57  64 CALM      30.04R
FERNANDINA BEA FAIR      70  59  68 CALM      30.02S
ST AUGUSTINE   PTCLDY    66  59  78 CALM      30.04R
PALM COAST     FAIR      62  61  94 CALM      30.02S

STATION/POSITION SKY/WX   TEMP    WIND        PRES    WAVE   SWELL
                          AIR SEA DIR/SP/G            HT/PER HT/PER
                          (F)     (DEG/KT/KT) (MB)    (FT/S) (FT/S)
SHELL POINT                67     310/  6/  8 1014.9
KEATON BEACH               67      90/  8/  9 1016.3R
CEDAR KEY                  74      70/  5/  5 1016.6F
FERNANDINA                 73 78  100/  2/  2 1016.7F
30.7N   81.3W                 77                N/A     2/ 9
MAYPORT                    72 78  220/  4/  5 1016.9F
31.4N   80.9W              76 76  120/  6/  6 1017.2S   2/ 9   2/ 9
ST AUGUSTINE               70 78   CALM  /  1 1017.6R

$$
FLZ040-043>046-052-053-057-058-063-144-240900-
INTERIOR CENTRAL FLORIDA

CITY           SKY/WX    TMP DP  RH WIND       PRES   REMARKS
OCALA          CLEAR     63  55  77 CALM      30.02S
THE VILLAGES     N/A     68  63  83 CALM      29.92S
LEESBURG       CLEAR     72  63  73 E3        30.02S
SANFORD        CLEAR     69  61  75 CALM      30.02S
ORLANDO EXEC   MOCLDY    72  63  73 E5        30.01F
ORLANDO INTL   PTCLDY    71  63  75 E5        30.02S
WINTER HAVEN   MOCLDY    73  63  70 CALM      30.03R
LAKELAND       PTCLDY    68  61  77 CALM      30.01S
BARTOW         FAIR      68  63  83 CALM      30.02S
OKEECHOBEE     PTCLDY    68  68 100 CALM      30.01S

$$
FLZ041-047-054-059-064-141-147-240900-
EAST CENTRAL FLORIDA

CITY           SKY/WX    TMP DP  RH WIND       PRES   REMARKS
DAYTONA BEACH  PTCLDY    67  62  84 CALM      30.02S
DELAND           N/A     63  59  88 CALM      30.03F
JFK SPACE CTR  PTCLDY    67  64  90 E3        30.01S
CAPE CANAVERAL PTCLDY    74  63  69 E5        30.00S
PATRICK AFB    PTCLDY    78  66  66 E9        30.01S
MELBOURNE      MOCLDY    78  68  71 SE8       30.01S
VERO BEACH     CLEAR     77  69  76 E6        30.01S
FT PIERCE      PTCLDY    72  67  84 S5        30.00F
STUART         CLEAR     75  70  83 CALM      30.02S

STATION/POSITION SKY/WX   TEMP    WIND        PRES    WAVE   SWELL
                          AIR SEA DIR/SP/G            HT/PER HT/PER
                          (F)     (DEG/KT/KT) (MB)    (FT/S) (FT/S)
28.5N   80.2W              79 80  130/  6/  8 1016.9R
28.9N   78.5W              77 78   70/  8/  8 1017.3R
TRIDENT PIER               77 81  100/  5/  7 1016.5F
28.4N   80.5W                 80                N/A     2/ 9
27.5N   80.2W                 79                N/A     2/ 9

$$
FLZ050-056-061-142-242-148-248-149-249-151-251-155-255-
160-260-240900-
WEST CENTRAL FLORIDA

CITY           SKY/WX    TMP DP  RH WIND       PRES   REMARKS
CRYSTAL RIVER  FAIR      61  57  88 CALM      30.01S
INVERNESS      FAIR      63  61  94 CALM      30.02S
BROOKSVILLE    PTCLDY    60  58  92 CALM      30.02S
ZEPHYRHILLS    FAIR      59  55  89 CALM      30.02S
CLEARWATER AIR FAIR      64  59  82 CALM      30.01S
ST PETE CLEARW CLEAR     68  61  78 CALM      30.01S
TAMPA INTL     CLEAR     71  59  65 CALM      30.02S
TAMPA EXEC     MOCLDY    64  63  94 CALM      30.02S
PLANT CITY     CLEAR     68  61  77 CALM      30.04R
MACDILL AFB    PTCLDY    64  59  83 NE2       30.01S
PETER O KNIGHT CLEAR     72  63  73 CALM      30.01F
ST PETERSBURG  CLEAR     75  61  61 N3        29.99F
SARASOTA       CLEAR     69  61  75 N3        30.00S
VENICE         NOT AVBL

STATION/POSITION SKY/WX   TEMP    WIND        PRES    WAVE   SWELL
                          AIR SEA DIR/SP/G            HT/PER HT/PER
                          (F)     (DEG/KT/KT) (MB)    (FT/S) (FT/S)
27.3N   84.2W                 80                N/A     1
CLEARWATER BEACH           74 83  100/  4/  4 1016.4F
MIDDLE TAMPA BAY           77      50/  7/  9 1016.6F
VENICE                     73 82   40/  5/  6 1015.9F

$$
FLZ066-069-070-075>078-162-262-165-265-240900-
SOUTHWEST FLORIDA AND KEYS

CITY           SKY/WX    TMP DP  RH WIND       PRES   REMARKS
PUNTA GORDA    CLEAR     71  61  70 NW5       30.02F
FT MYERS       CLEAR     72  64  76 NE3       29.99F
SOUTHWEST INTL CLEAR     71  67  87 CALM      30.00F
NAPLES         CLEAR     74  71  91 NE6       30.00S
MARCO ISLAND   CLEAR     73  66  78 NE6       30.00S
MARATHON       CLEAR     77  67  71 CALM      29.98F
KEY WEST NAS   MOCLDY    79  74  84 E7        29.98F
KEY WEST INTL  PTCLDY    78  76  93 E3        29.99F

STATION/POSITION SKY/WX   TEMP    WIND        PRES    WAVE   SWELL
                          AIR SEA DIR/SP/G            HT/PER HT/PER
                          (F)     (DEG/KT/KT) (MB)    (FT/S) (FT/S)
NAPLES                        85              1015.9F
26.0N   85.6W              80 82  110/  8/ 10 1015.7F   1
DRY TORTUGAS               80        CALM     1015.4F
SAND KEY                   80      50/  3/  6 1015.7F
LONG KEY                   81 85  150/  3/  3 1015.7F

$$
FLZ067-068-071>074-168-172>174-240900-
SOUTHEAST FLORIDA

CITY           SKY/WX    TMP DP  RH WIND       PRES   REMARKS
W PALM BEACH   MOCLDY    77  68  73 S5        30.01S
FT LAUDER-EXEC PTCLDY    75  71  87 CALM      30.00S
FT LAUDERDALE  PTCLDY    77  67  71 W3        30.00S
POMPANO BEACH  PTCLDY    77  71  82 NW3       30.00S
PEMBROKE PINES CLEAR     75  70  84 N3        30.01S
OPA LOCKA        N/A     76  69  79 CALM      30.01R
MIAMI          PTCLDY    78  67  68 NW5       30.01R
WEST KENDALL   CLEAR     72  68  87 CALM      30.00S
HOMESTEAD      CLEAR     75  69  81 NW3       30.00S

STATION/POSITION SKY/WX   TEMP    WIND        PRES    WAVE   SWELL
                          AIR SEA DIR/SP/G            HT/PER HT/PER
                          (F)     (DEG/KT/KT) (MB)    (FT/S) (FT/S)
PORT EVERGLADES            79     220/  1/  3 1016.0F
VIRGINIA KEY               80 82  270/  5/  6 1016.0F
LAKE WORTH                 78 80  140/ 12/ 14 1016.1F
FOWEY ROCKS                81 84  310/  6/  8 1016.4R
SETTLEMENT POINT           78     130/  2/  2 1016.8F

$$




USA.gov is the U.S. government's official web portal to all federal, state and local government web resources and services.